ROA9721 SVMG-SVCN

Flight info

Callsign ROA9721
Flight time 0h 55m
Altitude 37000
Route ESPEP SILED DCT MUN DCT GNA/N0448F380 DCT RAVIE
Aircraft B737/M-SDE2E3FGHIRWXY/LB1

Departure

Time 2026-04-23 20:14
Airport Del Caribe Santiago Mariño International Airport (SVMG)

Arrival

Time 2026-04-23 21:09
Airport Canaima Airport (SVCN)
Time Latitude Longitude Altitude Speed Heading
2026-04-23 20:11 10.91193 -63.97847 57 ft 14 kts 258°
2026-04-23 20:11 10.91174 -63.97944 53 ft 14 kts 258°
2026-04-23 20:12 10.91156 -63.98035 56 ft 13 kts 258°
2026-04-23 20:12 10.91136 -63.98124 59 ft 13 kts 238°
2026-04-23 20:12 10.91059 -63.98130 65 ft 9 kts 165°
2026-04-23 20:12 10.91031 -63.98115 66 ft 2 kts 135°
2026-04-23 20:13 10.91022 -63.98104 71 ft 2 kts 130°
2026-04-23 20:13 10.91013 -63.98093 74 ft 2 kts 130°
2026-04-23 20:13 10.90996 -63.98073 72 ft 8 kts 127°
2026-04-23 20:13 10.90992 -63.97978 66 ft 32 kts 79°
2026-04-23 20:14 10.91092 -63.97495 61 ft 106 kts 78°
2026-04-23 20:14 10.91279 -63.96593 192 ft 146 kts 77°
2026-04-23 20:14 10.91492 -63.95578 800 ft 149 kts 76°
2026-04-23 20:14 10.91573 -63.94536 1616 ft 147 kts 103°
2026-04-23 20:15 10.91045 -63.93618 2341 ft 159 kts 125°
2026-04-23 20:15 10.90060 -63.92898 2657 ft 195 kts 160°
2026-04-23 20:15 10.88610 -63.92669 2901 ft 226 kts 172°
2026-04-23 20:15 10.86967 -63.92518 3098 ft 248 kts 172°
2026-04-23 20:16 10.85817 -63.92295 3212 ft 261 kts 155°
2026-04-23 20:16 10.84255 -63.91323 3833 ft 264 kts 144°
2026-04-23 20:16 10.82734 -63.90226 4509 ft 269 kts 144°
2026-04-23 20:16 10.81209 -63.89125 5247 ft 270 kts 144°
2026-04-23 20:17 10.79671 -63.88020 5989 ft 271 kts 145°
2026-04-23 20:17 10.78122 -63.86913 6659 ft 273 kts 146°
2026-04-23 20:17 10.76559 -63.85800 7279 ft 276 kts 146°
2026-04-23 20:17 10.74977 -63.84678 7882 ft 279 kts 146°
2026-04-23 20:18 10.73375 -63.83544 8472 ft 282 kts 147°
2026-04-23 20:18 10.71781 -63.82417 9059 ft 285 kts 147°
2026-04-23 20:18 10.70141 -63.81259 9630 ft 288 kts 147°
2026-04-23 20:18 10.68473 -63.80082 10223 ft 299 kts 147°
2026-04-23 20:19 10.66674 -63.78816 10466 ft 328 kts 147°
2026-04-23 20:19 10.64754 -63.77462 11084 ft 341 kts 147°
2026-04-23 20:19 10.62787 -63.76073 11898 ft 346 kts 147°
2026-04-23 20:19 10.60794 -63.74665 12732 ft 351 kts 147°
2026-04-23 20:20 10.58768 -63.73237 13589 ft 356 kts 146°
2026-04-23 20:20 10.56722 -63.71795 14335 ft 361 kts 146°
2026-04-23 20:20 10.54648 -63.70337 15122 ft 364 kts 146°
2026-04-23 20:20 10.52545 -63.68885 15864 ft 368 kts 146°
2026-04-23 20:21 10.50407 -63.67419 16609 ft 373 kts 146°
2026-04-23 20:21 10.48253 -63.65946 17436 ft 376 kts 146°
2026-04-23 20:21 10.46060 -63.64444 18075 ft 383 kts 146°
2026-04-23 20:21 10.43837 -63.62921 18713 ft 387 kts 146°
2026-04-23 20:22 10.41622 -63.61403 19366 ft 389 kts 146°
2026-04-23 20:22 10.39373 -63.59860 20072 ft 390 kts 146°
2026-04-23 20:22 10.37134 -63.58324 20837 ft 388 kts 146°
2026-04-23 20:22 10.34905 -63.56794 21632 ft 385 kts 146°
2026-04-23 20:23 10.32678 -63.55267 22401 ft 386 kts 146°
2026-04-23 20:23 10.30426 -63.53722 22809 ft 396 kts 146°
2026-04-23 20:23 10.28104 -63.52129 22913 ft 410 kts 146°
2026-04-23 20:23 10.25708 -63.50486 22923 ft 420 kts 146°
2026-04-23 20:24 10.23273 -63.48817 22916 ft 424 kts 146°
2026-04-23 20:24 10.20830 -63.47142 22912 ft 421 kts 146°
2026-04-23 20:24 10.18423 -63.45493 22900 ft 414 kts 146°
2026-04-23 20:24 10.16049 -63.43866 22897 ft 409 kts 146°
2026-04-23 20:25 10.13706 -63.42261 22889 ft 404 kts 146°
2026-04-23 20:25 10.11393 -63.40677 22883 ft 400 kts 146°
2026-04-23 20:25 10.09098 -63.39104 22889 ft 396 kts 146°
2026-04-23 20:25 10.06820 -63.37544 22893 ft 396 kts 146°
2026-04-23 20:26 10.04561 -63.35998 22895 ft 396 kts 146°
2026-04-23 20:26 10.02278 -63.34435 22895 ft 396 kts 146°
2026-04-23 20:26 9.99986 -63.32866 22893 ft 397 kts 146°
2026-04-23 20:26 9.97695 -63.31298 22891 ft 397 kts 146°
2026-04-23 20:27 9.95409 -63.29733 22890 ft 397 kts 146°
2026-04-23 20:27 9.93108 -63.28159 22887 ft 398 kts 146°
2026-04-23 20:27 9.90817 -63.26593 22889 ft 398 kts 146°
2026-04-23 20:27 9.88518 -63.25020 22879 ft 398 kts 146°
2026-04-23 20:28 9.86223 -63.23451 22883 ft 398 kts 146°
2026-04-23 20:28 9.83928 -63.21882 22871 ft 398 kts 146°
2026-04-23 20:28 9.81630 -63.20310 22871 ft 398 kts 146°
2026-04-23 20:28 9.79334 -63.18741 22872 ft 398 kts 146°
2026-04-23 20:29 9.77064 -63.17190 22872 ft 398 kts 146°
2026-04-23 20:29 9.74706 -63.15701 22865 ft 398 kts 153°
2026-04-23 20:29 9.72158 -63.14620 22867 ft 398 kts 163°
2026-04-23 20:29 9.69492 -63.13849 22865 ft 398 kts 165°
2026-04-23 20:30 9.66816 -63.13127 22857 ft 398 kts 165°
2026-04-23 20:30 9.61461 -63.11703 22864 ft 398 kts 166°
2026-04-23 20:30 9.58781 -63.10982 22857 ft 398 kts 165°
2026-04-23 20:31 9.56106 -63.10255 22849 ft 398 kts 165°
2026-04-23 20:31 9.53432 -63.09522 22853 ft 398 kts 166°
2026-04-23 20:31 9.50757 -63.08785 22853 ft 398 kts 165°
2026-04-23 20:31 9.48089 -63.08048 22851 ft 398 kts 165°
2026-04-23 20:32 9.45417 -63.07310 22853 ft 398 kts 165°
2026-04-23 20:32 9.42751 -63.06572 22843 ft 398 kts 165°
2026-04-23 20:32 9.40072 -63.05831 22843 ft 398 kts 165°
2026-04-23 20:32 9.37425 -63.05099 22845 ft 398 kts 165°
2026-04-23 20:33 9.34749 -63.04359 22844 ft 398 kts 165°
2026-04-23 20:33 9.32073 -63.03619 22843 ft 398 kts 165°
2026-04-23 20:33 9.29401 -63.02881 22836 ft 398 kts 165°
2026-04-23 20:33 9.26728 -63.02143 22836 ft 398 kts 165°
2026-04-23 20:34 9.24044 -63.01401 22835 ft 399 kts 165°
2026-04-23 20:34 9.21366 -63.00662 22838 ft 399 kts 165°
2026-04-23 20:34 9.18689 -62.99923 22839 ft 399 kts 165°
2026-04-23 20:34 9.16013 -62.99184 22836 ft 399 kts 165°
2026-04-23 20:35 9.13342 -62.98446 22833 ft 399 kts 165°
2026-04-23 20:35 9.10658 -62.97705 22834 ft 399 kts 165°
2026-04-23 20:35 9.07982 -62.96967 22834 ft 399 kts 165°
2026-04-23 20:35 9.05306 -62.96228 22832 ft 399 kts 165°
2026-04-23 20:36 9.02627 -62.95489 22827 ft 399 kts 165°
2026-04-23 20:36 8.99988 -62.94761 22828 ft 399 kts 165°
2026-04-23 20:36 8.97315 -62.94024 22827 ft 399 kts 165°
2026-04-23 20:36 8.94639 -62.93286 22827 ft 398 kts 165°
2026-04-23 20:37 8.91966 -62.92549 22832 ft 398 kts 165°
2026-04-23 20:37 8.89289 -62.91811 22826 ft 398 kts 165°
2026-04-23 20:37 8.86610 -62.91073 22828 ft 398 kts 165°
2026-04-23 20:37 8.83936 -62.90336 22828 ft 398 kts 165°
2026-04-23 20:38 8.81256 -62.89597 22827 ft 398 kts 165°
2026-04-23 20:38 8.78583 -62.88861 22827 ft 398 kts 165°
2026-04-23 20:38 8.75905 -62.88123 22830 ft 398 kts 165°
2026-04-23 20:38 8.73234 -62.87387 22828 ft 398 kts 165°
2026-04-23 20:39 8.70557 -62.86650 22828 ft 398 kts 164°
2026-04-23 20:39 8.67889 -62.85915 22826 ft 398 kts 165°
2026-04-23 20:39 8.65221 -62.85181 22828 ft 398 kts 164°
2026-04-23 20:39 8.62552 -62.84446 22827 ft 398 kts 165°
2026-04-23 20:40 8.59878 -62.83710 22827 ft 397 kts 164°
2026-04-23 20:40 8.57208 -62.82975 22827 ft 397 kts 165°
2026-04-23 20:40 8.54540 -62.82242 22824 ft 397 kts 164°
2026-04-23 20:40 8.51873 -62.81508 22828 ft 397 kts 164°
2026-04-23 20:41 8.49210 -62.80775 22835 ft 397 kts 164°
2026-04-23 20:41 8.46582 -62.80052 22835 ft 397 kts 164°
2026-04-23 20:41 8.43950 -62.79328 22830 ft 397 kts 164°
2026-04-23 20:41 8.41358 -62.78615 22829 ft 397 kts 165°
2026-04-23 20:42 8.38677 -62.77878 22832 ft 397 kts 165°
2026-04-23 20:42 8.36008 -62.77144 22843 ft 397 kts 164°
2026-04-23 20:42 8.33340 -62.76411 22843 ft 398 kts 164°
2026-04-23 20:42 8.31173 -62.75821 22844 ft 398 kts 166°
2026-04-23 20:43 8.28446 -62.75359 22836 ft 398 kts 175°
2026-04-23 20:43 8.25676 -62.75360 22850 ft 398 kts 182°
2026-04-23 20:43 8.22910 -62.75494 22842 ft 398 kts 182°
2026-04-23 20:43 8.20144 -62.75652 22854 ft 398 kts 183°
2026-04-23 20:44 8.17373 -62.75812 22855 ft 398 kts 183°
2026-04-23 20:44 8.14606 -62.75965 22855 ft 398 kts 183°
2026-04-23 20:44 8.11832 -62.76111 22856 ft 398 kts 182°
2026-04-23 20:44 8.09102 -62.76248 22856 ft 398 kts 182°
2026-04-23 20:45 8.06328 -62.76383 22858 ft 398 kts 182°
2026-04-23 20:45 8.03560 -62.76515 22857 ft 398 kts 182°
2026-04-23 20:45 8.00787 -62.76647 22858 ft 399 kts 182°
2026-04-23 20:45 7.98095 -62.76774 22854 ft 399 kts 182°
2026-04-23 20:46 7.95325 -62.76904 22854 ft 399 kts 182°
2026-04-23 20:46 7.92551 -62.77035 22855 ft 399 kts 182°
2026-04-23 20:46 7.89779 -62.77166 22857 ft 399 kts 182°
2026-04-23 20:46 7.87007 -62.77297 22854 ft 399 kts 182°
2026-04-23 20:47 7.84237 -62.77427 22854 ft 399 kts 182°
2026-04-23 20:47 7.81467 -62.77558 22858 ft 399 kts 182°
2026-04-23 20:47 7.78692 -62.77689 22858 ft 399 kts 182°
2026-04-23 20:47 7.76043 -62.77813 22857 ft 399 kts 182°
2026-04-23 20:48 7.73280 -62.77944 22855 ft 399 kts 182°
2026-04-23 20:48 7.70493 -62.78075 22860 ft 399 kts 182°
2026-04-23 20:48 7.67719 -62.78206 22851 ft 399 kts 182°
2026-04-23 20:48 7.64939 -62.78337 22852 ft 399 kts 183°
2026-04-23 20:49 7.62187 -62.78467 22852 ft 399 kts 182°
2026-04-23 20:49 7.59424 -62.78597 22852 ft 399 kts 182°
2026-04-23 20:49 7.56680 -62.78726 22852 ft 399 kts 183°
2026-04-23 20:49 7.53903 -62.78857 22851 ft 399 kts 182°
2026-04-23 20:50 7.51120 -62.78988 22853 ft 399 kts 183°
2026-04-23 20:50 7.48344 -62.79119 22853 ft 400 kts 182°
2026-04-23 20:50 7.45569 -62.79250 22852 ft 400 kts 183°
2026-04-23 20:50 7.42831 -62.79378 22851 ft 400 kts 183°
2026-04-23 20:51 7.40015 -62.79511 22854 ft 399 kts 183°
2026-04-23 20:51 7.37236 -62.79642 22852 ft 399 kts 183°
2026-04-23 20:51 7.34455 -62.79773 22851 ft 399 kts 183°
2026-04-23 20:51 7.31679 -62.79903 22852 ft 399 kts 183°
2026-04-23 20:52 7.28906 -62.80034 22852 ft 399 kts 183°
2026-04-23 20:52 7.26130 -62.80165 22852 ft 399 kts 183°
2026-04-23 20:52 7.23355 -62.80295 22852 ft 399 kts 183°
2026-04-23 20:52 7.20586 -62.80425 22853 ft 399 kts 183°
2026-04-23 20:53 7.17814 -62.80556 22851 ft 399 kts 183°
2026-04-23 20:53 7.15071 -62.80685 22799 ft 400 kts 183°
2026-04-23 20:53 7.12247 -62.80818 22416 ft 409 kts 183°
2026-04-23 20:53 7.09393 -62.80955 21884 ft 410 kts 184°
2026-04-23 20:54 7.06563 -62.81108 21293 ft 405 kts 184°
2026-04-23 20:54 7.03785 -62.81267 20745 ft 392 kts 184°
2026-04-23 20:54 7.01105 -62.81423 20229 ft 380 kts 184°
2026-04-23 20:54 6.98504 -62.81574 19733 ft 370 kts 184°
2026-04-23 20:55 6.95942 -62.81723 19244 ft 367 kts 184°
2026-04-23 20:55 6.93405 -62.81869 18744 ft 365 kts 184°
2026-04-23 20:55 6.91108 -62.82001 18291 ft 363 kts 184°
2026-04-23 20:56 6.89841 -62.82073 18025 ft 362 kts 184°
2026-04-23 20:56 6.87329 -62.82217 17477 ft 360 kts 184°
2026-04-23 20:56 6.84841 -62.82358 16970 ft 356 kts 184°
2026-04-23 20:56 6.82377 -62.82498 16475 ft 353 kts 184°
2026-04-23 20:57 6.79934 -62.82637 15987 ft 350 kts 184°
2026-04-23 20:57 6.77515 -62.82775 15507 ft 346 kts 184°
2026-04-23 20:57 6.75118 -62.82911 15036 ft 344 kts 184°
2026-04-23 20:57 6.72732 -62.83047 14549 ft 342 kts 184°
2026-04-23 20:58 6.70399 -62.83179 14074 ft 340 kts 184°
2026-04-23 20:58 6.68040 -62.83313 13571 ft 338 kts 184°
2026-04-23 20:58 6.65693 -62.83447 13052 ft 336 kts 183°
2026-04-23 20:58 6.63369 -62.83579 12561 ft 333 kts 184°
2026-04-23 20:59 6.61071 -62.83709 12079 ft 329 kts 183°
2026-04-23 20:59 6.58790 -62.83839 11607 ft 326 kts 183°
2026-04-23 20:59 6.56535 -62.83967 11144 ft 323 kts 183°
2026-04-23 20:59 6.54294 -62.84094 10688 ft 321 kts 183°
2026-04-23 21:00 6.52072 -62.84220 10233 ft 318 kts 183°
2026-04-23 21:00 6.49903 -62.84344 10058 ft 306 kts 183°
2026-04-23 21:00 6.47812 -62.84462 9906 ft 295 kts 183°
2026-04-23 21:00 6.45802 -62.84576 9779 ft 282 kts 183°
2026-04-23 21:01 6.43812 -62.84689 9229 ft 287 kts 183°
2026-04-23 21:01 6.41851 -62.84801 8811 ft 286 kts 183°
2026-04-23 21:01 6.39848 -62.84914 8433 ft 283 kts 183°
2026-04-23 21:01 6.37912 -62.85024 8071 ft 281 kts 183°
2026-04-23 21:02 6.35969 -62.85135 7713 ft 279 kts 183°
2026-04-23 21:02 6.34030 -62.85245 7354 ft 277 kts 183°
2026-04-23 21:02 6.32108 -62.85354 6990 ft 276 kts 182°
2026-04-23 21:02 6.30204 -62.85462 6769 ft 269 kts 182°
2026-04-23 21:03 6.28362 -62.85566 6608 ft 260 kts 182°
2026-04-23 21:03 6.26592 -62.85667 6484 ft 250 kts 182°
2026-04-23 21:03 6.24889 -62.85772 6452 ft 238 kts 186°
2026-04-23 21:03 6.23301 -62.86074 6382 ft 228 kts 193°
2026-04-23 21:04 6.21790 -62.86444 6303 ft 218 kts 193°
2026-04-23 21:04 6.20324 -62.86801 6077 ft 216 kts 193°
2026-04-23 21:04 6.18868 -62.87146 5863 ft 214 kts 192°
2026-04-23 21:04 6.17427 -62.87480 5630 ft 212 kts 192°
2026-04-23 21:05 6.15995 -62.87810 5380 ft 210 kts 192°
2026-04-23 21:05 6.14583 -62.88133 5173 ft 206 kts 192°
2026-04-23 21:05 6.13202 -62.88425 4941 ft 200 kts 183°
2026-04-23 21:05 6.11933 -62.88048 4700 ft 189 kts 136°
2026-04-23 21:06 6.11280 -62.86987 4478 ft 180 kts 101°
2026-04-23 21:06 6.11363 -62.85785 4229 ft 172 kts 67°
2026-04-23 21:06 6.12115 -62.84882 3954 ft 169 kts 31°
2026-04-23 21:06 6.13208 -62.84564 3691 ft 160 kts
2026-04-23 21:07 6.14259 -62.84627 3638 ft 143 kts 356°
2026-04-23 21:07 6.15245 -62.84723 3356 ft 145 kts 355°
2026-04-23 21:07 6.16240 -62.84808 3098 ft 144 kts 356°
2026-04-23 21:07 6.17236 -62.84886 2820 ft 142 kts 355°
2026-04-23 21:08 6.18217 -62.84969 2551 ft 142 kts 355°
2026-04-23 21:08 6.19206 -62.85056 2258 ft 142 kts 354°
2026-04-23 21:08 6.20173 -62.85159 2010 ft 139 kts 354°
2026-04-23 21:08 6.21133 -62.85264 1741 ft 137 kts 354°
2026-04-23 21:09 6.22075 -62.85364 1440 ft 134 kts 353°
2026-04-23 21:09 6.22943 -62.85460 1337 ft 112 kts 353°
2026-04-23 21:09 6.23571 -62.85533 1318 ft 69 kts 354°
2026-04-23 21:09 6.23854 -62.85565 1312 ft 22 kts 353°
2026-04-23 21:10 6.24002 -62.85582 1306 ft 13 kts 353°
2026-04-23 21:10 6.24085 -62.85592 1302 ft 9 kts 353°
2026-04-23 21:10 6.24134 -62.85598 1300 ft 4 kts 353°
2026-04-23 21:10 6.24155 -62.85586 1299 ft 3 kts 66°
2026-04-23 21:11 6.24145 -62.85560 1299 ft 5 kts 154°
2026-04-23 21:11 6.24124 -62.85558 1300 ft 2 kts 174°
2026-04-23 21:11 6.24122 -62.85557 1300 ft 0 kts 174°